Starlink 32475

operational
NORAD ID: 61728 Int'l Des: 2024-196 Owner: SPXS Country: US Constellation: starlink
LEOCIRCULAR

About Starlink 32475

Description loading...

Live Position

Loading 3D Globe...

Upcoming Passes

Altitude History

Altitude vs Time

uPlot chart will show altitude changes over time

Two-Line Element Set

1 61728U 24196X 26102.95364896 -.00000236 00000-0 41646-5 0 9995
2 61728 53.1596 302.1065 0001142 75.7812 284.3316 15.30182330 82407
Epoch: Apr 12, 2026 • Age: 10 hours

Current Status

Altitude 478.8 km
Velocity 7.63 km/s
Sub-Earth Point 43.06°N, 14.61°E
Launch Date Oct 30, 2024
Age 1.4 years
Type internet

Technical Details

Classification Payload
Mass 730.00 kg
Dry Mass 700.00 kg
Total Mass 730.00 kg
Length 0.30 m
Diameter 4.10 m
Span 29.00 m
Shape Box + pan
Manufacturer SPXS
Bus Type Starlink V2M
Phase Status In Orbit
Owner/State SPXS/US

Large Constellations

Loading constellations...